This is the latest recevied weather packets stored in our database for station/object KC5DAQ-26. If no packets are shown the sender has not sent any weather packets the latest 10 day(s).
| Time | Temp. | Humidity | Pressure | Rain* | Wind** | Luminosity | Snow |
|---|---|---|---|---|---|---|---|
| 1787944859 | 35.56° C | 59% | 1018.8 hPa | 0 mm | - | 941 W/m² | - |
| 1787944799 | 35° C | 57% | 1018.9 hPa | 0 mm | - | 941 W/m² | - |
| 1787944740 | 35° C | 56% | 1018.9 hPa | 0 mm | - | 943 W/m² | - |
| 1787944678 | 35° C | 58% | 1019 hPa | 0 mm | - | 944 W/m² | - |
| 1787944618 | 35° C | 58% | 1018.9 hPa | 0 mm | - | 946 W/m² | - |
| 1787944557 | 35° C | 56% | 1018.9 hPa | 0 mm | - | 951 W/m² | - |
| 1787944500 | 35° C | 58% | 1019 hPa | 0 mm | - | 951 W/m² | - |
| 1787944441 | 35.56° C | 60% | 1019 hPa | 0 mm | - | 950 W/m² | - |
| 1787944378 | 35.56° C | 57% | 1019 hPa | 0 mm | - | 948 W/m² | - |
| 1787944318 | 35.56° C | 59% | 1019 hPa | 0 mm | - | 948 W/m² | - |
| 1787944258 | 35.56° C | 56% | 1018.9 hPa | 0 mm | - | 949 W/m² | - |
| 1787944199 | 35.56° C | 58% | 1019 hPa | 0 mm | - | 946 W/m² | - |
| 1787944138 | 35° C | 60% | 1019 hPa | 0 mm | - | 948 W/m² | - |
| 1787944078 | 35° C | 57% | 1019 hPa | 0 mm | - | 948 W/m² | - |
| 1787944018 | 35° C | 58% | 1019 hPa | 0 mm | - | 948 W/m² | - |
| 1787943958 | 35° C | 57% | 1019 hPa | 0 mm | - | 948 W/m² | - |
| 1787943897 | 35° C | 58% | 1019.1 hPa | 0 mm | - | 950 W/m² | - |
| 1787943838 | 35° C | 57% | 1019.1 hPa | 0 mm | - | 951 W/m² | - |
| 1787943779 | 35° C | 61% | 1019 hPa | 0 mm | - | 951 W/m² | - |
| 1787943719 | 35° C | 60% | 1019.1 hPa | 0 mm | - | 951 W/m² | - |
| 1787943658 | 35° C | 60% | 1019.1 hPa | 0 mm | - | 953 W/m² | - |
| 1787943597 | 35° C | 58% | 1019 hPa | 0 mm | - | 958 W/m² | - |
| 1787943538 | 35° C | 57% | 1019 hPa | 0 mm | - | 957 W/m² | - |
| 1787943484 | 34.44° C | 57% | 1019 hPa | 0 mm | - | 957 W/m² | - |
| 1787943418 | 34.44° C | 57% | 1019.1 hPa | 0 mm | - | 953 W/m² | - |
* Rain latest hour (hover to see other rain measurements)
** Current wind speed in m/s (hover to see current wind gust speed)